SIRIUS-3

Last updated on Oct. 24, 2016, 9:18 a.m. UTC

1 26626U 00077A   16297.53307112 -.00000077  00000-0  00000+0 0  9997
2 26626  62.4381 350.3094 0008892 277.2475  82.7121  1.58821748 58540
UTC
Height (km)
Latitude
Longitude
Inclination
Orbital Period
UTC large
Height (km)
Speed (km/s)
/
Latitude / Longitude
Inclination (degrees)
Orbital Period (minutes)
Azimuth
Elevation
Range (km)
Doppler Factor
iOS Compass Heading
iOS Angle

Next 30 passes for location: Hong Kong

Rise time Rise Azimuth (degrees) Set time Set Azimuth (degrees) Duration Max altitude (degrees)

No matching passes for this satellites